TimeEST,TemperatureF,Dew PointF,Humidity,Sea Level PressureIn,VisibilityMPH,Wind Direction,Wind SpeedMPH,Gust SpeedMPH,PrecipitationIn,Events,Conditions,WindDirDegrees,DateUTC
12:54 AM,30.0,25.0,82,30.03,10.0,Calm,Calm,-,N/A,,Clear,0,2013-02-15 05:54:00
1:54 AM,32.0,26.1,79,30.05,10.0,Calm,Calm,-,N/A,,Clear,0,2013-02-15 06:54:00
2:54 AM,34.0,27.0,75,30.04,10.0,SW,3.5,-,N/A,,Clear,230,2013-02-15 07:54:00
3:54 AM,33.1,27.0,78,30.03,10.0,Calm,Calm,-,N/A,,Partly Cloudy,0,2013-02-15 08:54:00
4:54 AM,30.9,26.1,82,30.03,10.0,SSW,3.5,-,N/A,,Clear,200,2013-02-15 09:54:00
5:54 AM,28.9,24.1,82,30.05,10.0,South,5.8,-,N/A,,Clear,190,2013-02-15 10:54:00
6:54 AM,28.0,25.0,88,30.05,10.0,Calm,Calm,-,N/A,,Clear,0,2013-02-15 11:54:00
7:54 AM,32.0,27.0,82,30.07,10.0,Calm,Calm,-,N/A,,Clear,0,2013-02-15 12:54:00
8:54 AM,42.1,32.0,67,30.08,10.0,SW,5.8,-,N/A,,Clear,220,2013-02-15 13:54:00
9:54 AM,48.0,33.1,56,30.07,10.0,SSW,8.1,-,N/A,,Clear,200,2013-02-15 14:54:00
10:54 AM,54.0,33.1,45,30.05,10.0,Variable,3.5,-,N/A,,Clear,0,2013-02-15 15:54:00
11:54 AM,57.9,33.1,39,30.02,10.0,South,11.5,-,N/A,,Clear,190,2013-02-15 16:54:00
12:54 PM,60.1,30.9,33,29.99,10.0,WSW,9.2,16.1,N/A,,Partly Cloudy,250,2013-02-15 17:54:00
1:54 PM,60.1,30.0,32,29.96,10.0,SW,6.9,-,N/A,,Scattered Clouds,220,2013-02-15 18:54:00
2:54 PM,63.0,30.0,29,29.93,10.0,SW,12.7,18.4,N/A,,Mostly Cloudy,220,2013-02-15 19:54:00
3:54 PM,59.0,28.9,32,29.91,10.0,SW,9.2,-,N/A,,Partly Cloudy,220,2013-02-15 20:54:00
4:54 PM,60.1,28.9,31,29.90,10.0,SSW,9.2,-,N/A,,Clear,210,2013-02-15 21:54:00
5:54 PM,55.9,28.9,36,29.91,10.0,SW,4.6,-,N/A,,Overcast,220,2013-02-15 22:54:00
6:54 PM,55.9,33.1,42,29.94,10.0,WNW,8.1,-,N/A,,Overcast,300,2013-02-15 23:54:00
7:54 PM,53.1,35.1,50,29.96,10.0,WNW,10.4,19.6,N/A,,Overcast,290,2013-02-16 00:54:00
8:54 PM,48.0,35.1,61,29.99,10.0,NE,4.6,-,0.00,,Overcast,40,2013-02-16 01:54:00
9:54 PM,46.0,33.1,61,29.99,10.0,Calm,Calm,-,N/A,,Overcast,0,2013-02-16 02:54:00
10:54 PM,45.0,33.1,63,30.00,10.0,SW,3.5,-,N/A,,Overcast,230,2013-02-16 03:54:00
11:54 PM,44.1,30.9,60,29.98,10.0,Calm,Calm,-,N/A,,Overcast,0,2013-02-16 04:54:00